Location: Góry Miechowskie
(50.3599°N, 20.1803°E)
Time: 02:11:41
(UTC+00:00)

Transit 2A Rocket - Pass Details

Date: 13 September 2024
Orbit: 582 x 908 km, 66.7° (Epoch: 10 October)

Event Time Altitude Azimuth Distance (km) Brightness Sun altitude
Exits shadow 22:41:56 30° 49° (NE) 1,570 6.8 -36.3°
Drops below altitude 10° 22:44:57 10° 41° (NE) 2,602 8.2 -36.3°
Sets 22:47:29 0° 39° (NE) 3,538 9.1 -36.3°
